TimeCST,TemperatureF,Dew PointF,Humidity,Sea Level PressureIn,VisibilityMPH,Wind Direction,Wind SpeedMPH,Gust SpeedMPH,PrecipitationIn,Events,Conditions,WindDirDegrees,DateUTC
12:48 AM,26.6,19.4,74,30.08,10.0,NNW,12.7,-,N/A,,Overcast,340,2012-12-27 06:48:00
12:52 AM,26.1,19.9,78,30.11,10.0,NNW,10.4,-,N/A,,Overcast,340,2012-12-27 06:52:00
1:52 AM,27.0,19.9,75,30.14,10.0,NW,13.8,-,N/A,,Overcast,320,2012-12-27 07:52:00
2:52 AM,26.1,19.9,78,30.15,10.0,NNW,10.4,-,N/A,,Overcast,340,2012-12-27 08:52:00
3:52 AM,27.0,19.9,75,30.16,10.0,NNW,11.5,-,N/A,,Overcast,340,2012-12-27 09:52:00
4:52 AM,27.0,21.0,78,30.17,10.0,NNW,9.2,-,N/A,,Overcast,330,2012-12-27 10:52:00
5:07 AM,26.6,19.4,74,30.13,10.0,NNW,10.4,17.3,N/A,,Overcast,340,2012-12-27 11:07:00
5:28 AM,26.6,19.4,74,30.13,10.0,NNW,11.5,-,N/A,,Overcast,340,2012-12-27 11:28:00
5:52 AM,27.0,19.9,75,30.17,10.0,NNW,9.2,-,N/A,,Overcast,330,2012-12-27 11:52:00
6:23 AM,26.6,19.4,74,30.14,10.0,NNW,11.5,-,N/A,,Overcast,340,2012-12-27 12:23:00
6:52 AM,27.0,19.9,75,30.19,10.0,NNW,10.4,-,N/A,,Overcast,330,2012-12-27 12:52:00
7:52 AM,27.0,19.0,72,30.20,10.0,NNW,11.5,-,N/A,,Overcast,330,2012-12-27 13:52:00
8:10 AM,26.6,19.4,74,30.17,10.0,NNW,11.5,-,N/A,,Overcast,340,2012-12-27 14:10:00
8:52 AM,27.0,19.0,72,30.20,10.0,North,12.7,-,N/A,,Overcast,350,2012-12-27 14:52:00
9:01 AM,26.6,19.4,74,30.17,10.0,North,10.4,-,N/A,,Overcast,350,2012-12-27 15:01:00
9:52 AM,27.0,19.9,75,30.22,10.0,NNW,9.2,-,N/A,,Overcast,340,2012-12-27 15:52:00
10:52 AM,28.0,19.9,72,30.22,10.0,North,9.2,-,N/A,,Overcast,360,2012-12-27 16:52:00
11:02 AM,28.4,19.4,69,30.18,10.0,NNW,10.4,-,N/A,,Overcast,340,2012-12-27 17:02:00
11:52 AM,28.0,21.0,75,30.19,10.0,North,8.1,-,N/A,,Overcast,350,2012-12-27 17:52:00
12:52 PM,28.9,21.0,72,30.18,10.0,North,8.1,-,N/A,,Overcast,350,2012-12-27 18:52:00
1:52 PM,28.9,21.0,72,30.17,10.0,NNE,9.2,-,N/A,,Overcast,20,2012-12-27 19:52:00
2:52 PM,28.9,21.9,75,30.17,10.0,North,9.2,-,N/A,,Overcast,360,2012-12-27 20:52:00
3:52 PM,28.0,21.0,75,30.18,10.0,North,5.8,-,N/A,,Overcast,360,2012-12-27 21:52:00
4:52 PM,28.0,21.0,75,30.19,10.0,North,5.8,-,N/A,,Overcast,350,2012-12-27 22:52:00
5:52 PM,28.0,21.9,78,30.19,9.0,North,5.8,-,0.00,Snow,Light Snow,360,2012-12-27 23:52:00
6:42 PM,28.4,21.2,74,30.15,9.0,North,6.9,-,0.00,Snow,Light Snow,350,2012-12-28 00:42:00
6:52 PM,28.0,21.9,78,30.18,9.0,NNW,5.8,-,0.00,Snow,Light Snow,330,2012-12-28 00:52:00
7:52 PM,28.0,21.9,78,30.18,9.0,NNW,9.2,-,0.00,Snow,Light Snow,340,2012-12-28 01:52:00
8:52 PM,28.0,21.9,78,30.16,10.0,North,5.8,-,0.00,,Overcast,10,2012-12-28 02:52:00
9:21 PM,28.4,23.0,80,30.13,10.0,Calm,Calm,-,N/A,,Overcast,0,2012-12-28 03:21:00
9:52 PM,28.0,23.0,81,30.16,10.0,NNW,4.6,-,N/A,,Overcast,330,2012-12-28 03:52:00
10:50 PM,28.4,23.0,80,30.13,10.0,NNW,3.5,-,N/A,,Overcast,330,2012-12-28 04:50:00
10:52 PM,28.0,23.0,81,30.16,10.0,NNW,4.6,-,N/A,,Overcast,330,2012-12-28 04:52:00
11:00 PM,28.4,23.0,80,30.13,10.0,Calm,Calm,-,N/A,,Overcast,0,2012-12-28 05:00:00
11:52 PM,28.0,23.0,81,30.15,10.0,WNW,3.5,-,0.00,Snow,Light Snow,300,2012-12-28 05:52:00